Location: Babice
(50.3480°N, 22.9363°E)
Time: 12:09:57
(UTC+00:00)

Cosmos 2322 Rocket - Pass Details

Date: 14 July 2020
Orbit: 832 x 851 km, 71.0° (Epoch: 07 August)

Event Time Altitude Azimuth Distance (km) Brightness Sun altitude
Rises 01:00:11 0° 332° (NNW) 3,405 5.8 -11.1°
Reaches altitude 10° 01:02:50 10° 341° (NNW) 2,470 5.2 -10.9°
Maximum altitude 01:08:03 36° 48° (NE) 1,308 4.0 -10.4°
Drops below altitude 10° 01:13:15 10° 115° (ESE) 2,469 4.8 -9.9°
Sets 01:15:54 0° 124° (SE) 3,404 5.4 -9.7°
